Year,Month,Day,Hour,Minute,Value (Times are PST for temperature in C)
2020,04,12,00,31,5.10
2020,04,12,00,32,5.10
2020,04,12,00,33,5.00
2020,04,12,00,34,5.00
2020,04,12,00,35,5.00
2020,04,12,00,36,4.90
2020,04,12,00,37,4.90
2020,04,12,00,38,4.90
2020,04,12,00,39,4.90
2020,04,12,00,40,4.90
2020,04,12,00,41,4.90
2020,04,12,00,42,4.80
2020,04,12,00,43,4.80
2020,04,12,00,44,4.80
2020,04,12,00,45,4.80
2020,04,12,00,46,4.80
2020,04,12,00,47,4.70
2020,04,12,00,48,4.70
2020,04,12,00,49,4.70
2020,04,12,00,50,4.70
2020,04,12,00,51,4.70
2020,04,12,00,52,4.70
2020,04,12,00,53,4.70
2020,04,12,00,54,4.70
2020,04,12,00,55,4.70
2020,04,12,00,56,4.60
2020,04,12,00,57,4.60
2020,04,12,00,58,4.60
2020,04,12,00,59,4.60
2020,04,12,01,00,4.60
2020,04,12,01,01,4.60
2020,04,12,01,02,4.60
2020,04,12,01,03,4.60
2020,04,12,01,04,4.60
2020,04,12,01,05,4.50
2020,04,12,01,06,4.50
2020,04,12,01,07,4.60
2020,04,12,01,08,4.60
2020,04,12,01,09,4.50
2020,04,12,01,10,4.50
2020,04,12,01,11,4.50
2020,04,12,01,12,4.50
2020,04,12,01,13,4.50
2020,04,12,01,14,4.40
2020,04,12,01,15,4.40
2020,04,12,01,16,4.40
2020,04,12,01,17,4.40
2020,04,12,01,18,4.30
2020,04,12,01,19,4.30
2020,04,12,01,20,4.30
2020,04,12,01,21,4.30
2020,04,12,01,22,4.20
2020,04,12,01,23,4.20
2020,04,12,01,24,4.20
2020,04,12,01,25,4.20
2020,04,12,01,26,4.20
2020,04,12,01,27,4.20
2020,04,12,01,28,4.20
2020,04,12,01,29,4.20
2020,04,12,01,30,4.10
2020,04,12,01,31,4.10
2020,04,12,01,32,4.10
2020,04,12,01,33,4.10
2020,04,12,01,34,4.10
2020,04,12,01,35,4.10
2020,04,12,01,36,4.10
2020,04,12,01,37,4.10
2020,04,12,01,38,4.10
2020,04,12,01,39,4.10
2020,04,12,01,40,4.10
2020,04,12,01,41,4.10
2020,04,12,01,42,4.10
2020,04,12,01,43,4.10
2020,04,12,01,44,4.10
2020,04,12,01,45,4.00
2020,04,12,01,46,4.00
2020,04,12,01,47,4.00
2020,04,12,01,48,4.00
2020,04,12,01,49,4.00
2020,04,12,01,50,4.00
2020,04,12,01,51,3.90
2020,04,12,01,52,3.90
2020,04,12,01,53,3.90
2020,04,12,01,54,3.90
2020,04,12,01,55,3.80
2020,04,12,01,56,3.80
2020,04,12,01,57,3.80
2020,04,12,01,58,3.80
2020,04,12,01,59,3.80
2020,04,12,02,00,3.80
2020,04,12,02,01,3.80
2020,04,12,02,02,3.80
2020,04,12,02,03,3.80
2020,04,12,02,04,3.80
2020,04,12,02,05,3.70
2020,04,12,02,06,3.70
2020,04,12,02,07,3.70
2020,04,12,02,08,3.70
2020,04,12,02,09,3.70
2020,04,12,02,10,3.60
2020,04,12,02,11,3.60
2020,04,12,02,12,3.60
2020,04,12,02,13,3.60
2020,04,12,02,14,3.60
2020,04,12,02,15,3.50
2020,04,12,02,16,3.50
2020,04,12,02,17,3.50
2020,04,12,02,18,3.50
2020,04,12,02,19,3.50
2020,04,12,02,20,3.40
2020,04,12,02,21,3.40
2020,04,12,02,22,3.40
2020,04,12,02,23,3.40
2020,04,12,02,24,3.40
2020,04,12,02,25,3.40
2020,04,12,02,26,3.30
2020,04,12,02,27,3.30
2020,04,12,02,28,3.30
2020,04,12,02,29,3.30
2020,04,12,02,30,3.30
2020,04,12,02,31,3.30
2020,04,12,02,32,3.20
2020,04,12,02,33,3.20
2020,04,12,02,34,3.20
2020,04,12,02,35,3.20
2020,04,12,02,36,3.20
2020,04,12,02,37,3.20
2020,04,12,02,38,3.20
2020,04,12,02,39,3.20
2020,04,12,02,40,3.20
2020,04,12,02,41,3.20
2020,04,12,02,42,3.10
2020,04,12,02,43,3.10
2020,04,12,02,44,3.10
2020,04,12,02,45,3.10
2020,04,12,02,46,3.10
2020,04,12,02,47,3.10
2020,04,12,02,48,3.00
2020,04,12,02,49,3.00
2020,04,12,02,50,3.00
2020,04,12,02,51,2.90
2020,04,12,02,52,2.90
2020,04,12,02,53,2.90
2020,04,12,02,54,2.90
2020,04,12,02,55,2.80
2020,04,12,02,56,2.80
2020,04,12,02,57,2.80
2020,04,12,02,58,2.70
2020,04,12,02,59,2.70
2020,04,12,03,00,2.70
2020,04,12,03,01,2.70
2020,04,12,03,02,2.70
2020,04,12,03,03,2.60
2020,04,12,03,04,2.60
2020,04,12,03,05,2.60
2020,04,12,03,06,2.60
2020,04,12,03,07,2.50
2020,04,12,03,08,2.50
2020,04,12,03,09,2.50
2020,04,12,03,10,2.50
2020,04,12,03,11,2.40
2020,04,12,03,12,2.40
2020,04,12,03,13,2.40
2020,04,12,03,14,2.40
2020,04,12,03,15,2.40
2020,04,12,03,16,2.40
2020,04,12,03,17,2.40
2020,04,12,03,18,2.30
2020,04,12,03,19,2.30
2020,04,12,03,20,2.30
2020,04,12,03,21,2.30
2020,04,12,03,22,2.40
2020,04,12,03,23,2.40
2020,04,12,03,24,2.40
2020,04,12,03,25,2.30
2020,04,12,03,26,2.30
2020,04,12,03,27,2.30
2020,04,12,03,28,2.30
2020,04,12,03,29,2.30
2020,04,12,03,30,2.20
2020,04,12,03,31,2.20
2020,04,12,03,32,2.20
2020,04,12,03,33,2.10
2020,04,12,03,34,2.10
2020,04,12,03,35,2.10
2020,04,12,03,36,2.10
2020,04,12,03,37,2.00
2020,04,12,03,38,2.00
2020,04,12,03,39,2.00
2020,04,12,03,40,1.90
2020,04,12,03,41,1.90
2020,04,12,03,42,1.90
2020,04,12,03,43,1.90
2020,04,12,03,44,1.90
2020,04,12,03,45,1.80
2020,04,12,03,46,1.80
2020,04,12,03,47,1.80
2020,04,12,03,48,1.80
2020,04,12,03,49,1.80
2020,04,12,03,50,1.80
2020,04,12,03,51,1.80
2020,04,12,03,52,1.80
2020,04,12,03,53,1.80
2020,04,12,03,54,1.80
2020,04,12,03,55,1.80
2020,04,12,03,56,1.80
2020,04,12,03,57,1.70
2020,04,12,03,58,1.70
2020,04,12,03,59,1.70
2020,04,12,04,00,1.70
2020,04,12,04,01,1.70
2020,04,12,04,02,1.60
2020,04,12,04,03,1.60
2020,04,12,04,04,1.60
2020,04,12,04,05,1.60
2020,04,12,04,06,1.60
2020,04,12,04,07,1.60
2020,04,12,04,08,1.60
2020,04,12,04,09,1.60
2020,04,12,04,10,1.60
2020,04,12,04,11,1.60
2020,04,12,04,12,1.60
2020,04,12,04,13,1.60
2020,04,12,04,14,1.50
2020,04,12,04,15,1.50
2020,04,12,04,16,1.50
2020,04,12,04,17,1.50
2020,04,12,04,18,1.40
2020,04,12,04,19,1.40
2020,04,12,04,20,1.30
2020,04,12,04,21,1.30
2020,04,12,04,22,1.40
2020,04,12,04,23,1.30
2020,04,12,04,24,1.40
2020,04,12,04,25,1.40
2020,04,12,04,26,1.40
2020,04,12,04,27,1.40
2020,04,12,04,28,1.40
2020,04,12,04,29,1.40
2020,04,12,04,30,1.40
2020,04,12,04,31,1.40
2020,04,12,04,32,1.40
2020,04,12,04,33,1.30
2020,04,12,04,34,1.30
2020,04,12,04,35,1.30
2020,04,12,04,36,1.30
2020,04,12,04,37,1.30
2020,04,12,04,38,1.40
2020,04,12,04,39,1.40
2020,04,12,04,40,1.30
2020,04,12,04,41,1.30
2020,04,12,04,42,1.30
2020,04,12,04,43,1.30
2020,04,12,04,44,1.30
2020,04,12,04,45,1.30
2020,04,12,04,46,1.30
2020,04,12,04,47,1.30
2020,04,12,04,48,1.30
2020,04,12,04,49,1.30
2020,04,12,04,50,1.30
2020,04,12,04,51,1.30
2020,04,12,04,52,1.30
2020,04,12,04,53,1.30
2020,04,12,04,54,1.30
2020,04,12,04,55,1.30
2020,04,12,07,44,1.20
2020,04,12,07,45,1.20
2020,04,12,07,46,1.20
2020,04,12,07,47,1.20
2020,04,12,07,48,1.30
2020,04,12,07,49,1.30
2020,04,12,07,50,1.30
2020,04,12,07,51,1.30
2020,04,12,07,52,1.30
2020,04,12,07,53,1.30
2020,04,12,07,54,1.30
2020,04,12,07,55,1.40
2020,04,12,07,56,1.50
2020,04,12,07,57,1.50
2020,04,12,07,58,1.60
2020,04,12,07,59,1.60
2020,04,12,08,00,1.70
2020,04,12,08,01,1.70
2020,04,12,08,02,1.70
2020,04,12,08,03,1.70
2020,04,12,08,04,1.80
2020,04,12,08,05,1.80
2020,04,12,08,06,1.80
2020,04,12,08,07,1.80
2020,04,12,08,08,1.80
2020,04,12,08,09,1.80
2020,04,12,08,10,1.80
2020,04,12,08,11,1.90
2020,04,12,08,12,1.90
2020,04,12,08,13,2.00
2020,04,12,08,14,2.00
2020,04,12,08,15,2.10
2020,04,12,08,16,2.10
2020,04,12,08,17,2.10
2020,04,12,08,18,2.20
2020,04,12,08,19,2.20
2020,04,12,08,20,2.20
2020,04,12,08,21,2.30
2020,04,12,08,22,2.30
2020,04,12,08,23,2.40
2020,04,12,08,24,2.40
2020,04,12,08,25,2.40
2020,04,12,08,26,2.40
2020,04,12,08,27,2.40
2020,04,12,08,28,2.50
2020,04,12,08,29,2.50
2020,04,12,08,30,2.60
2020,04,12,08,31,2.60
2020,04,12,08,32,2.60
2020,04,12,08,33,2.70
2020,04,12,08,34,2.70
2020,04,12,08,35,2.80
2020,04,12,08,36,2.80
2020,04,12,08,37,2.90
2020,04,12,08,38,2.90
2020,04,12,08,39,3.00
2020,04,12,08,40,3.00
2020,04,12,08,41,3.10
2020,04,12,08,42,3.10
2020,04,12,08,43,3.20
2020,04,12,08,44,3.30
2020,04,12,08,45,3.30
2020,04,12,08,46,3.40
2020,04,12,08,47,3.50
2020,04,12,08,48,3.60
2020,04,12,08,49,3.70
2020,04,12,08,50,3.80
2020,04,12,08,51,3.90
2020,04,12,08,52,4.00
2020,04,12,08,53,4.20
2020,04,12,08,54,4.30
2020,04,12,08,55,4.40
2020,04,12,08,56,4.50
2020,04,12,08,57,4.60
2020,04,12,08,58,4.70
2020,04,12,08,59,4.80
2020,04,12,09,00,4.80
2020,04,12,09,01,4.90
2020,04,12,09,02,4.90
2020,04,12,09,03,5.00
2020,04,12,09,04,5.10
2020,04,12,09,05,5.10
2020,04,12,09,06,5.20
2020,04,12,09,07,5.30
2020,04,12,09,08,5.30
2020,04,12,09,09,5.40
2020,04,12,09,10,5.50
2020,04,12,09,11,5.60
2020,04,12,09,12,5.70
2020,04,12,09,13,5.80
2020,04,12,09,14,5.90
2020,04,12,09,15,6.00
2020,04,12,09,16,6.10
2020,04,12,09,17,6.20
2020,04,12,09,18,6.30
2020,04,12,09,19,6.40
2020,04,12,09,20,6.40
2020,04,12,09,21,6.50
2020,04,12,09,22,6.50
2020,04,12,09,23,6.60
2020,04,12,09,24,6.60
2020,04,12,09,25,6.70
2020,04,12,09,26,6.70
2020,04,12,09,27,6.80
2020,04,12,09,28,6.80
2020,04,12,09,29,6.90
2020,04,12,09,30,6.90
2020,04,12,09,31,7.00
2020,04,12,09,32,7.10
2020,04,12,09,33,7.20
2020,04,12,09,34,7.20
2020,04,12,09,35,7.30
2020,04,12,09,36,7.30
2020,04,12,09,37,7.40
2020,04,12,09,38,7.50
2020,04,12,09,39,7.60
2020,04,12,09,40,7.70
2020,04,12,09,41,7.70
2020,04,12,09,42,7.80
2020,04,12,09,43,7.90
2020,04,12,09,44,8.10
2020,04,12,09,45,8.30
2020,04,12,09,46,8.50
2020,04,12,09,47,8.70
2020,04,12,09,48,8.90
2020,04,12,09,49,9.00
2020,04,12,09,50,9.10
2020,04,12,09,51,9.30
2020,04,12,09,52,9.30
2020,04,12,09,53,9.40
2020,04,12,09,54,9.50
2020,04,12,09,55,9.60
2020,04,12,09,56,9.60
2020,04,12,09,57,9.60
2020,04,12,09,58,9.70
2020,04,12,09,59,9.70
2020,04,12,10,00,9.70
2020,04,12,10,01,9.80
2020,04,12,10,02,9.80
2020,04,12,10,03,9.90
2020,04,12,10,04,9.90
2020,04,12,10,05,10.00
2020,04,12,10,06,10.00
2020,04,12,10,07,10.10
2020,04,12,10,08,10.20
2020,04,12,10,09,10.40
2020,04,12,10,10,10.50
2020,04,12,10,11,10.60
2020,04,12,10,12,10.70
2020,04,12,10,13,10.80
2020,04,12,10,14,10.90
2020,04,12,10,15,11.00
2020,04,12,10,16,11.10
2020,04,12,10,17,11.20
2020,04,12,10,18,11.30
2020,04,12,10,19,11.30
2020,04,12,10,20,11.40
2020,04,12,10,21,11.50
2020,04,12,10,22,11.60
2020,04,12,10,23,11.60
2020,04,12,10,24,11.70
2020,04,12,10,25,11.80
2020,04,12,10,26,11.80
2020,04,12,10,27,11.80
2020,04,12,10,28,11.70
2020,04,12,10,29,11.70
2020,04,12,10,30,11.70
2020,04,12,10,31,11.70
2020,04,12,10,32,11.70
2020,04,12,10,33,11.70
2020,04,12,10,34,11.70
2020,04,12,10,35,11.70
2020,04,12,10,36,11.70
2020,04,12,10,37,11.80
2020,04,12,10,38,11.80
2020,04,12,10,39,11.90
2020,04,12,10,40,11.90
2020,04,12,10,41,12.00
2020,04,12,10,42,12.10
2020,04,12,10,43,12.20
2020,04,12,10,44,12.30
2020,04,12,10,45,12.30
2020,04,12,10,46,12.40
2020,04,12,10,47,12.40
2020,04,12,10,48,12.40
2020,04,12,10,49,12.40
2020,04,12,10,50,12.40
2020,04,12,10,51,12.40
2020,04,12,10,52,12.40
2020,04,12,10,53,12.40
2020,04,12,10,54,12.30
2020,04,12,10,55,12.30
2020,04,12,10,56,12.20
2020,04,12,10,57,12.20
2020,04,12,10,58,12.20
2020,04,12,10,59,12.10
2020,04,12,11,00,12.10
2020,04,12,11,01,12.20
2020,04,12,11,02,12.20
2020,04,12,11,03,12.20
2020,04,12,11,04,12.30
2020,04,12,11,05,12.30
2020,04,12,11,06,12.30
2020,04,12,11,07,12.30
2020,04,12,11,08,12.20
2020,04,12,11,09,12.30
2020,04,12,11,10,12.30
2020,04,12,11,11,12.30
2020,04,12,11,12,12.30
2020,04,12,11,13,12.30
2020,04,12,11,14,12.40
2020,04,12,11,15,12.40
2020,04,12,11,16,12.50
2020,04,12,11,17,12.60
2020,04,12,11,18,12.60
2020,04,12,11,19,12.60
2020,04,12,11,20,12.60
2020,04,12,11,21,12.60
2020,04,12,11,22,12.60
2020,04,12,11,23,12.60
2020,04,12,11,24,12.60
2020,04,12,11,25,12.60
2020,04,12,11,26,12.60
2020,04,12,11,27,12.70
2020,04,12,11,28,12.70
2020,04,12,11,29,12.70
2020,04,12,11,30,12.70
2020,04,12,11,31,12.70
2020,04,12,11,32,12.70
2020,04,12,11,33,12.70
2020,04,12,11,34,12.70
2020,04,12,11,35,12.70
2020,04,12,11,36,12.70
2020,04,12,11,37,12.70
2020,04,12,12,45,14.20
2020,04,12,12,46,14.20
2020,04,12,12,47,14.00
2020,04,12,12,48,13.90
2020,04,12,12,49,13.80
2020,04,12,12,50,13.80
2020,04,12,12,51,13.80
2020,04,12,12,52,13.80
2020,04,12,12,53,13.90
2020,04,12,12,54,14.00
2020,04,12,12,55,14.10
2020,04,12,12,56,14.10
2020,04,12,12,57,14.10
2020,04,12,12,58,14.20
2020,04,12,12,59,14.20
2020,04,12,13,00,14.20
2020,04,12,13,01,14.20
2020,04,12,13,02,14.20
2020,04,12,13,03,14.20
2020,04,12,13,04,14.30
2020,04,12,13,05,14.30
2020,04,12,13,06,14.30
2020,04,12,13,07,14.30
2020,04,12,13,08,14.30
2020,04,12,13,09,14.30
2020,04,12,13,10,14.40
2020,04,12,13,11,14.60
2020,04,12,13,12,14.70
2020,04,12,13,13,14.70
2020,04,12,13,14,14.80
2020,04,12,13,15,14.80
2020,04,12,13,16,14.80
2020,04,12,13,17,14.70
2020,04,12,13,18,14.60
2020,04,12,13,19,14.50
2020,04,12,13,20,14.50
2020,04,12,13,21,14.30
2020,04,12,13,22,14.20
2020,04,12,13,23,14.00
2020,04,12,13,24,13.90
2020,04,12,13,25,13.90
2020,04,12,13,26,13.80
2020,04,12,13,27,13.80
2020,04,12,13,28,13.70
2020,04,12,13,29,13.70
2020,04,12,13,30,13.70
2020,04,12,13,31,13.70
2020,04,12,13,32,13.80
2020,04,12,13,33,13.90
2020,04,12,13,34,14.00
2020,04,12,13,35,14.20
2020,04,12,13,36,14.30
2020,04,12,13,37,14.50
2020,04,12,13,38,14.70
2020,04,12,13,39,14.90
2020,04,12,13,40,15.00
2020,04,12,13,41,15.00
2020,04,12,13,42,15.00
2020,04,12,13,43,15.10
2020,04,12,13,44,15.20
2020,04,12,13,45,15.30
2020,04,12,13,46,15.50
2020,04,12,13,47,15.60
2020,04,12,13,48,15.60
2020,04,12,13,49,15.70
2020,04,12,13,50,15.70
2020,04,12,13,51,15.80
2020,04,12,13,52,15.90
2020,04,12,13,53,15.90
2020,04,12,13,54,16.00
2020,04,12,13,55,16.10
2020,04,12,13,56,16.10
2020,04,12,13,57,16.10
2020,04,12,13,58,15.90
2020,04,12,13,59,15.70
2020,04,12,14,00,15.60
2020,04,12,14,01,15.60
2020,04,12,14,02,15.60
2020,04,12,14,03,15.60
2020,04,12,14,04,15.70
2020,04,12,14,05,15.70
2020,04,12,14,06,15.80
2020,04,12,14,07,15.90
2020,04,12,14,08,16.00
2020,04,12,14,09,16.00
2020,04,12,14,10,16.10
2020,04,12,14,11,16.10
2020,04,12,14,12,16.10
2020,04,12,14,13,16.10
2020,04,12,14,14,16.20
2020,04,12,14,15,16.20
2020,04,12,14,16,16.20
2020,04,12,14,17,16.20
2020,04,12,14,18,16.20
2020,04,12,14,19,16.10
2020,04,12,14,20,16.10
2020,04,12,14,21,16.00
2020,04,12,14,22,15.90
2020,04,12,14,23,15.90
2020,04,12,14,24,15.90
2020,04,12,14,25,16.00
2020,04,12,14,26,16.10
2020,04,12,14,27,16.10
2020,04,12,14,28,16.10
2020,04,12,14,29,16.20
2020,04,12,14,30,16.20
2020,04,12,14,31,16.00
2020,04,12,14,32,15.90
2020,04,12,14,33,15.80
2020,04,12,14,34,15.80
2020,04,12,14,35,15.80
2020,04,12,14,36,15.90
2020,04,12,14,37,15.90
2020,04,12,14,38,15.90
2020,04,12,14,39,15.90
2020,04,12,14,40,16.00
2020,04,12,14,41,16.10
2020,04,12,14,42,16.10
2020,04,12,14,43,16.10
2020,04,12,14,44,16.20
2020,04,12,14,45,16.20
2020,04,12,14,46,16.30
2020,04,12,14,47,16.30
2020,04,12,14,48,16.40
2020,04,12,14,49,16.40
2020,04,12,14,50,16.40
2020,04,12,14,51,16.40
2020,04,12,14,52,16.40
2020,04,12,14,53,16.40
2020,04,12,14,54,16.40
2020,04,12,14,55,16.40
2020,04,12,14,56,16.50
2020,04,12,14,57,16.40
2020,04,12,14,58,16.40
2020,04,12,14,59,16.40
2020,04,12,15,00,16.40
2020,04,12,15,01,16.40
2020,04,12,15,02,16.30
2020,04,12,15,03,16.30
2020,04,12,15,04,16.30
2020,04,12,15,05,16.40
2020,04,12,15,06,16.40
2020,04,12,15,07,16.50
2020,04,12,15,08,16.60
2020,04,12,15,09,16.60
2020,04,12,15,10,16.70
2020,04,12,15,11,16.70
2020,04,12,15,12,16.70
2020,04,12,15,13,16.70
2020,04,12,15,14,16.70
2020,04,12,15,15,16.70
2020,04,12,15,16,16.70
2020,04,12,15,17,16.80
2020,04,12,15,18,16.80
2020,04,12,15,19,16.80
2020,04,12,15,20,16.80
2020,04,12,15,21,16.80
2020,04,12,15,22,16.80
2020,04,12,15,23,16.80
2020,04,12,15,24,16.80
2020,04,12,15,25,16.80
2020,04,12,15,26,16.70
2020,04,12,15,27,16.60
2020,04,12,15,28,16.50
2020,04,12,15,29,16.40
2020,04,12,15,30,16.20
2020,04,12,15,31,16.10
2020,04,12,15,32,16.10
2020,04,12,15,33,16.00
2020,04,12,15,34,16.00
2020,04,12,15,35,16.00
2020,04,12,15,36,15.80
2020,04,12,15,37,15.70
2020,04,12,15,38,15.70
2020,04,12,15,39,15.70
2020,04,12,15,40,15.70
2020,04,12,15,41,15.70
2020,04,12,15,42,15.80
2020,04,12,15,43,15.80
2020,04,12,15,44,15.90
2020,04,12,15,45,15.90
2020,04,12,15,46,15.90
2020,04,12,15,47,15.90
2020,04,12,15,48,15.90
2020,04,12,15,49,16.00
2020,04,12,15,50,16.00
2020,04,12,15,51,16.10
2020,04,12,15,52,16.20
2020,04,12,15,53,16.30
2020,04,12,15,54,16.30
2020,04,12,15,55,16.30
2020,04,12,15,56,16.30
2020,04,12,15,57,16.40
2020,04,12,15,58,16.40
2020,04,12,15,59,16.50
2020,04,12,16,00,16.60
2020,04,12,16,01,16.70
2020,04,12,16,02,16.70
2020,04,12,16,03,16.70
2020,04,12,16,04,16.80
2020,04,12,16,05,16.80
2020,04,12,16,06,16.70
2020,04,12,16,07,16.60
2020,04,12,16,08,16.60
2020,04,12,16,09,16.40
2020,04,12,16,10,16.30
2020,04,12,16,11,16.20
2020,04,12,16,12,16.20
2020,04,12,16,13,16.10
2020,04,12,16,14,16.20
2020,04,12,16,15,16.20
2020,04,12,16,16,16.20
2020,04,12,16,17,16.20
2020,04,12,16,18,16.10
2020,04,12,16,19,15.90
2020,04,12,16,20,15.90
2020,04,12,16,21,15.90
2020,04,12,16,22,15.90
2020,04,12,16,23,16.00
2020,04,12,16,24,16.10
2020,04,12,16,25,16.10
2020,04,12,16,26,16.10
2020,04,12,16,27,16.10
2020,04,12,16,28,16.10
2020,04,12,16,29,16.10
2020,04,12,16,30,16.10
2020,04,12,16,31,16.00
2020,04,12,16,32,16.00
2020,04,12,16,33,16.00
2020,04,12,16,34,15.90
2020,04,12,16,35,15.90
2020,04,12,16,36,15.90
2020,04,12,16,37,16.00
2020,04,12,16,38,16.00
2020,04,12,16,39,16.00
2020,04,12,16,40,16.00
2020,04,12,16,41,16.00
2020,04,12,16,42,15.90
2020,04,12,16,43,15.70
2020,04,12,16,44,15.60
2020,04,12,16,45,15.60
2020,04,12,16,46,15.60
2020,04,12,16,47,15.60
2020,04,12,16,48,15.60
2020,04,12,16,49,15.70
2020,04,12,16,50,15.80
2020,04,12,16,51,15.80
2020,04,12,16,52,15.90
2020,04,12,16,53,16.00
2020,04,12,16,54,16.20
2020,04,12,16,55,16.20
2020,04,12,16,56,16.30
2020,04,12,16,57,16.40
2020,04,12,16,58,16.40
2020,04,12,16,59,16.30
2020,04,12,17,00,16.30
2020,04,12,17,01,16.20
2020,04,12,17,02,16.20
2020,04,12,17,03,16.20
2020,04,12,17,04,16.10
2020,04,12,17,05,15.90
2020,04,12,17,06,15.90
2020,04,12,17,07,15.80
2020,04,12,17,08,15.90
2020,04,12,17,09,15.90
2020,04,12,17,10,16.10
2020,04,12,17,11,16.20
2020,04,12,17,12,16.30
2020,04,12,17,13,16.40
2020,04,12,17,14,16.50
2020,04,12,17,15,16.50
2020,04,12,17,16,16.60
2020,04,12,17,17,16.70
2020,04,12,17,18,16.70
2020,04,12,17,19,16.60
2020,04,12,17,20,16.50
2020,04,12,17,21,16.40
2020,04,12,17,22,16.40
2020,04,12,17,23,16.40
2020,04,12,17,24,16.30
2020,04,12,17,25,16.30
2020,04,12,17,26,16.30
2020,04,12,17,27,16.30
2020,04,12,17,28,16.30
2020,04,12,17,29,16.40
2020,04,12,17,30,16.40
2020,04,12,17,31,16.40
2020,04,12,17,32,16.40
2020,04,12,17,33,16.40
2020,04,12,17,34,16.40
2020,04,12,17,35,16.30
2020,04,12,17,36,16.30
2020,04,12,17,37,16.30
2020,04,12,17,38,16.30
2020,04,12,17,39,16.30
2020,04,12,17,40,16.40
2020,04,12,17,41,16.40
2020,04,12,17,42,16.40
2020,04,12,17,43,16.40
2020,04,12,17,44,16.30
2020,04,12,17,45,16.30
2020,04,12,17,46,16.20
2020,04,12,17,47,16.20
2020,04,12,17,48,16.10
2020,04,12,17,49,16.10
2020,04,12,17,50,16.10
2020,04,12,17,51,16.00
2020,04,12,17,52,16.00
2020,04,12,17,53,16.00
2020,04,12,17,54,16.00
2020,04,12,17,55,16.00
2020,04,12,17,56,16.00
2020,04,12,17,57,16.10
2020,04,12,17,58,16.10
2020,04,12,17,59,16.10
2020,04,12,18,00,16.20
2020,04,12,18,01,16.20
2020,04,12,18,02,16.20
2020,04,12,18,03,16.10
2020,04,12,18,04,16.10
2020,04,12,18,05,16.10
2020,04,12,18,06,16.10
2020,04,12,18,07,16.00
2020,04,12,18,08,16.00
2020,04,12,18,09,15.90
2020,04,12,18,10,15.90
2020,04,12,18,11,15.90
2020,04,12,18,12,16.00
2020,04,12,18,13,16.00
2020,04,12,18,14,16.10
2020,04,12,18,15,16.10
2020,04,12,18,16,16.20
2020,04,12,18,17,16.20
2020,04,12,18,18,16.20
2020,04,12,18,19,16.30
2020,04,12,18,20,16.30
2020,04,12,18,21,16.40
2020,04,12,18,22,16.40
2020,04,12,18,23,16.50
2020,04,12,18,24,16.50
2020,04,12,18,25,16.50
2020,04,12,18,26,16.60
2020,04,12,18,27,16.60
2020,04,12,18,28,16.60
2020,04,12,18,29,16.60
2020,04,12,18,30,16.60
2020,04,12,18,31,16.50
2020,04,12,18,32,16.40
2020,04,12,18,33,16.40
2020,04,12,18,34,16.30
2020,04,12,18,35,16.20
2020,04,12,18,36,16.20
2020,04,12,18,37,16.10
2020,04,12,18,38,16.10
2020,04,12,18,39,16.10
2020,04,12,18,40,16.10
2020,04,12,18,41,16.20
2020,04,12,18,42,16.10
2020,04,12,18,43,16.10
2020,04,12,18,44,16.00
2020,04,12,18,45,15.90
2020,04,12,18,46,15.90
2020,04,12,18,47,15.80
2020,04,12,18,48,15.70
2020,04,12,18,49,15.60
2020,04,12,18,50,15.50
2020,04,12,18,51,15.40
2020,04,12,18,52,15.30
2020,04,12,18,53,15.20
2020,04,12,18,54,15.20
2020,04,12,18,55,15.10
2020,04,12,18,56,15.00
2020,04,12,18,57,15.00
2020,04,12,18,58,15.00
2020,04,12,18,59,15.00
2020,04,12,19,00,14.90
2020,04,12,19,01,14.80
2020,04,12,19,02,14.80
2020,04,12,19,03,14.70
2020,04,12,19,04,14.70
2020,04,12,19,05,14.60
2020,04,12,19,06,14.60
2020,04,12,19,07,14.50
2020,04,12,19,08,14.50
2020,04,12,19,09,14.40
2020,04,12,19,10,14.40
2020,04,12,19,11,14.40
2020,04,12,19,12,14.30
2020,04,12,19,13,14.30
2020,04,12,19,14,14.20
2020,04,12,19,15,14.20
2020,04,12,19,16,14.20
2020,04,12,19,17,14.10
2020,04,12,19,18,14.10
2020,04,12,19,19,14.00
2020,04,12,19,20,14.00
2020,04,12,19,21,13.90
2020,04,12,19,22,13.90
2020,04,12,19,23,13.80
2020,04,12,19,24,13.70
2020,04,12,19,25,13.60
2020,04,12,19,26,13.60
2020,04,12,19,27,13.50
2020,04,12,19,28,13.50
2020,04,12,19,29,13.40
2020,04,12,19,30,13.30
2020,04,12,19,31,13.30
2020,04,12,19,32,13.30
2020,04,12,19,33,13.20
2020,04,12,19,34,13.20
2020,04,12,19,35,13.10
2020,04,12,19,36,13.10
2020,04,12,19,37,13.00
2020,04,12,19,38,12.90
2020,04,12,19,39,12.90
2020,04,12,19,40,12.80
2020,04,12,19,41,12.70
2020,04,12,19,42,12.70
2020,04,12,19,43,12.60
2020,04,12,19,44,12.50
2020,04,12,19,45,12.50
2020,04,12,19,46,12.40
2020,04,12,19,47,12.30
2020,04,12,19,48,12.30
2020,04,12,19,49,12.20
2020,04,12,19,50,12.10
2020,04,12,19,51,12.00
2020,04,12,19,52,12.00
2020,04,12,19,53,11.90
2020,04,12,19,54,11.80
2020,04,12,19,55,11.70
2020,04,12,19,56,11.70
2020,04,12,19,57,11.60
2020,04,12,19,58,11.50
2020,04,12,19,59,11.40
2020,04,12,20,00,11.40
2020,04,12,20,01,11.30
2020,04,12,20,02,11.20
2020,04,12,20,03,11.20
2020,04,12,20,04,11.10
2020,04,12,20,05,11.00
2020,04,12,20,06,10.90
2020,04,12,20,07,10.90
2020,04,12,20,08,10.80
2020,04,12,20,09,10.80
2020,04,12,20,10,10.70
2020,04,12,20,11,10.70
2020,04,12,20,12,10.60
2020,04,12,20,13,10.50
2020,04,12,20,14,10.50
2020,04,12,20,15,10.40
2020,04,12,20,16,10.40
2020,04,12,20,17,10.30
2020,04,12,20,18,10.30
2020,04,12,20,19,10.30
2020,04,12,20,20,10.20
2020,04,12,20,21,10.20
2020,04,12,20,22,10.20
2020,04,12,20,23,10.10
2020,04,12,20,24,10.00
2020,04,12,20,25,10.00
2020,04,12,20,26,9.90
2020,04,12,20,27,9.80
2020,04,12,20,28,9.80
2020,04,12,20,29,9.80
2020,04,12,20,30,9.70
2020,04,12,20,31,9.70
2020,04,12,20,32,9.70
2020,04,12,20,33,9.60
2020,04,12,20,34,9.60
2020,04,12,20,35,9.60
2020,04,12,20,36,9.50
2020,04,12,20,37,9.50
2020,04,12,20,38,9.40
2020,04,12,20,39,9.30
2020,04,12,20,40,9.30
2020,04,12,20,41,9.20
2020,04,12,20,42,9.10
2020,04,12,20,43,9.10
2020,04,12,20,44,9.10
2020,04,12,20,45,9.00
2020,04,12,20,46,9.00
2020,04,12,20,47,8.90
2020,04,12,20,48,8.90
2020,04,12,20,49,8.80
2020,04,12,20,50,8.80
2020,04,12,20,51,8.70
2020,04,12,20,52,8.70
2020,04,12,20,53,8.70
2020,04,12,20,54,8.60
2020,04,12,20,55,8.60
2020,04,12,20,56,8.60
2020,04,12,20,57,8.50
2020,04,12,20,58,8.50
2020,04,12,20,59,8.50
2020,04,12,21,00,8.50
2020,04,12,21,01,8.40
2020,04,12,21,02,8.40
2020,04,12,21,03,8.40
2020,04,12,21,04,8.40
2020,04,12,21,05,8.30
2020,04,12,21,06,8.30
2020,04,12,21,07,8.30
2020,04,12,21,08,8.30
2020,04,12,21,09,8.20
2020,04,12,21,10,8.20
2020,04,12,21,11,8.20
2020,04,12,21,12,8.20
2020,04,12,21,13,8.20
2020,04,12,21,14,8.20
2020,04,12,21,15,8.20
2020,04,12,21,16,8.20
2020,04,12,21,17,8.20
2020,04,12,21,18,8.20
2020,04,12,21,19,8.20
2020,04,12,21,20,8.20
2020,04,12,21,21,8.10
2020,04,12,21,22,8.10
2020,04,12,21,23,8.10
2020,04,12,21,24,8.00
2020,04,12,21,25,8.00
2020,04,12,21,26,7.90
2020,04,12,21,27,7.90
2020,04,12,21,28,7.80
2020,04,12,21,29,7.80
2020,04,12,21,30,7.70
2020,04,12,21,31,7.70
2020,04,12,21,32,7.70
2020,04,12,21,33,7.70
2020,04,12,21,34,7.60
2020,04,12,21,35,7.60
2020,04,12,21,36,7.60
2020,04,12,21,37,7.60
2020,04,12,21,38,7.60
2020,04,12,21,39,7.60
2020,04,12,21,40,7.60
2020,04,12,21,41,7.60
2020,04,12,21,42,7.60
2020,04,12,21,43,7.60
2020,04,12,21,44,7.60
2020,04,12,21,45,7.60
2020,04,12,21,46,7.60
2020,04,12,21,47,7.60
2020,04,12,21,48,7.50
2020,04,12,21,49,7.50
2020,04,12,21,50,7.50
2020,04,12,21,51,7.40
2020,04,12,21,52,7.40
2020,04,12,21,53,7.40
2020,04,12,21,54,7.30
2020,04,12,21,55,7.30
2020,04,12,21,56,7.30
2020,04,12,21,57,7.20
2020,04,12,21,58,7.20
2020,04,12,21,59,7.20
2020,04,12,22,00,7.10
2020,04,12,22,01,7.10
2020,04,12,22,02,7.00
2020,04,12,22,03,6.90
2020,04,12,22,04,6.90
2020,04,12,22,05,6.90
2020,04,12,22,06,6.90
2020,04,12,22,07,6.90